Regional Weather Roundup
Issued by NWS

Home | Current Version | Previous Version | Text Only | Print | Product List | Glossary Off
Versions: 1 2 3 4 5 6 7 8 9 10 11 12 13 14 15 16 17 18 19 20 21 22 23 24 25 26 27 28 29 30 31 32 33 34 35 36 37 38 39 40 41 42 43 44 45 46 47 48 49 50

000
ASUS43 KLSX 280307
RWRMO

WEATHER SUMMARY FOR MISSOURI
NATIONAL WEATHER SERVICE SPRINGFIELD MO
1000 PM CDT MON MAR 27 2017

NOTE: "FAIR" INDICATES FEW OR NO CLOUDS BELOW 12,000 FEET WITH NO
       SIGNIFICANT WEATHER AND/OR OBSTRUCTIONS TO VISIBILITY.
       CURRENT SKY AND/OR WEATHER CONDITIONS ARE NOT AVAILABLE FOR
       CHILLICOTHE AND FARMINGTON.

MOZ001>031-035>038-043-044-053-054-280400-
...NORTHERN AND WESTERN MISSOURI...

CITY           SKY/WX    TMP DP  RH WIND       PRES   REMARKS
KANSAS CTY INT CLOUDY    51  46  83 NE6       29.99R
KANSAS C DTWN  CLOUDY    52  45  77 N5        29.98R
LEE`S SUMMIT   CLOUDY    51  47  86 NE5       29.99R
ST JOSEPH      CLOUDY    47  44  90 N5        30.00R
CHILLICOTHE      N/A     49  47  93 N6        30.00R
KIRKSVILLE     CLOUDY    49  46  90 N7        29.98R

$$
MOZ066>068-077>081-088>096-101>105-280400-
...SOUTHWEST MISSOURI...

CITY           SKY/WX    TMP DP  RH WIND       PRES   REMARKS
SPRINGFIELD    CLOUDY    52  50  93 NW6       29.96R
JOPLIN         CLOUDY    52  50  93 NE6       29.97R

$$
MOZ032>034-039>042-045>050-055>058-069>072-280400-
...CENTRAL MISSOURI...

CITY           SKY/WX    TMP DP  RH WIND       PRES   REMARKS
COLUMBIA       CLOUDY    53  53 100 NE12      29.94S
JEFFERSON CITY CLOUDY    56  53  90 CALM      29.95R
ROLLA          CLOUDY    52  52 100 W5        29.94S FOG
SEDALIA        CLOUDY    51  50  96 NW5       29.99R
WHITEMAN AFB   CLOUDY    50  50 100 N7        29.97R
WARRENSBURG    CLOUDY    48  46  93 N3        29.99R
OSAGE BEACH    LGT RAIN N/A N/A N/A VRB3      29.97R

$$
MOZ051-052-059>065-280400-
...EAST CENTRAL MISSOURI...

CITY           SKY/WX    TMP DP  RH WIND       PRES   REMARKS
ST LOUIS INTL  PTCLDY    55  51  86 N7        29.93R
SPIRIT OF STL  CLOUDY    57  54  89 N5        29.93R
ST CHARLES     PTCLDY    54  53  97 N8        29.93R

$$
MOZ072>076-082>087-097>100-106>115-280400-
...SOUTH CENTRAL AND SOUTHEAST MISSOURI...

CITY           SKY/WX    TMP DP  RH WIND       PRES   REMARKS
CAPE GIRARDEAU CLOUDY    58  53  84 N16       29.90R
FARMINGTON     CLOUDY    55  52  89 NW7       29.94R
POPLAR BLUFF   PTCLDY    57  56  96 N5        29.89R
WEST PLAINS    CLEAR     54  50  86 N8        29.94R

$$




USA.gov is the U.S. government's official web portal to all federal, state and local government web resources and services.